[[{"header":{"parameterUnit":"m.s-1","parameterCategory":1,"la1":30.2991,"la2":30.254,"lo1":-89.0895,"lo2":-89.0444,"dy":0.0017,"dx":0.0017,"nx":28,"ny":28,"refTime":"2025-06-21T21:00:00:Z","depth":0,"parameterNumber":2,"parameterNumberName":"U-component_of_WINDS"},"data":[0,0,0,0,0,0,0,0,0,0,0,0,0,0,0,0,0,0,0,0,0,0,0,0,0,0,0,0,0,0,0,0,0,0,0,0,0,0,0,0,0,0,0,0,0,0,0,0,0,0,0,0,0,0,0,0,0,0,-1.8331,-1.833,0,-1.8298,-1.8297,-1.8297,-1.8254,-1.8253,-1.8252,-1.8252,-1.8216,-1.8216,-1.8216,0,0,0,0,0,0,0,0,0,0,0,0,0,-1.8357,-1.8357,-1.8331,-1.833,-1.833,-1.8298,-1.8297,-1.8297,-1.8254,-1.8253,-1.8252,-1.8251,-1.8216,-1.8216,-1.8216,0,0,0,0,0,0,0,0,0,0,0,0,0,-1.8337,-1.8357,-1.8331,-1.8305,-1.8302,-1.8298,-1.8297,-1.8297,-1.8254,-1.8253,-1.8252,-1.8251,-1.8216,-1.8216,-1.8216,-1.8234,0,0,-1.8214,-1.8214,0,0,0,0,0,0,0,0,-1.8338,-1.8336,-1.8309,-1.8306,-1.8303,-1.8279,-1.8293,-1.8275,-1.8254,-1.8272,-1.8251,-1.825,-1.8238,-1.8235,-1.8231,-1.8232,-1.8231,-1.8214,-1.8214,-1.8214,-1.8214,0,0,0,0,0,0,0,-1.834,-1.8337,-1.8317,-1.8309,-1.8305,-1.8295,-1.8291,-1.829,-1.8261,-1.827,-1.8267,-1.8264,-1.8236,-1.8232,-1.823,-1.823,-1.8214,-1.8214,-1.8213,-1.8213,-1.8246,-1.8247,0,0,0,0,0,0,-1.8345,-1.8339,-1.8319,-1.8316,-1.8319,-1.8295,-1.8291,-1.8288,-1.8261,-1.8256,-1.8265,-1.8262,-1.8233,-1.8231,-1.8229,-1.8249,-1.8214,-1.8213,-1.8213,-1.8245,-1.8246,-1.8247,0,0,0,0,0,0,-1.8346,-1.8344,-1.832,-1.8327,-1.8323,-1.8296,-1.8293,-1.8288,-1.8283,-1.8257,-1.8251,-1.8266,-1.8232,-1.823,-1.8233,-1.8247,-1.8213,-1.8213,-1.8244,-1.8245,-1.8247,-1.829,0,0,0,0,0,0,-1.8347,-1.8344,-1.8351,-1.8327,-1.8323,-1.8325,-1.8294,-1.8288,-1.8283,-1.8279,-1.8256,-1.8252,-1.8231,-1.8234,-1.8233,-1.8246,-1.8212,-1.8242,-1.8244,-1.8246,-1.8287,-1.8293,-1.8297,0,0,0,0,0,-1.8348,-1.8363,-1.8351,-1.8349,-1.833,-1.8326,-1.8323,-1.83,-1.8284,-1.8291,-1.8274,-1.8252,-1.8247,-1.8235,-1.8233,-1.8246,-1.8241,-1.8244,-1.8246,-1.8284,-1.8291,-1.8297,0,0,0,0,0,0,-1.8388,-1.836,-1.8346,-1.8354,-1.8343,-1.8318,-1.8325,-1.8308,-1.83,-1.8296,-1.8267,-1.8263,-1.827,-1.8259,-1.8247,-1.8264,-1.8241,-1.8243,-1.827,-1.8277,-1.8282,-1.8284,-1.8212,0,0,0,0,0,-1.8398,-1.8397,-1.8372,-1.8382,-1.8377,-1.8353,-1.835,-1.8333,-1.832,-1.8314,-1.8298,-1.8286,-1.8281,-1.8279,-1.8273,-1.8286,-1.8281,-1.8294,-1.83,-1.8304,-1.8306,-1.8313,-1.8319,-1.8256,-1.8256,-1.8256,0,0,-1.8418,-1.8402,-1.8403,-1.8389,-1.8379,-1.8378,-1.8349,-1.8349,-1.8348,-1.8314,-1.8317,-1.8305,-1.829,-1.8299,-1.8301,-1.8289,-1.8323,-1.8307,-1.8311,-1.831,-1.8316,-1.8322,-1.8327,-1.8258,-1.8257,-1.8257,0,0,-1.8454,-1.8442,-1.8449,-1.844,-1.8424,-1.8409,-1.8411,-1.839,-1.838,-1.8383,-1.8358,-1.8357,-1.835,-1.834,-1.8335,-1.8371,-1.8351,-1.837,-1.8397,-1.8404,-1.8409,-1.8414,-1.8427,-1.8432,-1.8372,-1.8372,-1.8372,0,-1.848,-1.8479,-1.8455,-1.8458,-1.8453,-1.8424,-1.8431,-1.8423,-1.8406,-1.8404,-1.8391,-1.8382,-1.837,-1.8377,-1.8386,-1.8382,-1.8384,-1.8371,-1.8411,-1.8415,-1.8418,-1.843,-1.8435,-1.8375,-1.8374,-1.8374,-1.8374,0,-1.8512,-1.8512,-1.852,-1.8506,-1.8502,-1.8507,-1.8485,-1.8484,-1.8468,-1.8454,-1.8458,-1.8443,-1.8434,-1.8435,-1.8419,-1.844,-1.8433,-1.8416,-1.8392,-1.8427,-1.8438,-1.8442,-1.8378,-1.8377,-1.8377,-1.8376,0,0,-1.857,-1.8545,-1.8548,-1.8542,-1.8524,-1.8523,-1.8528,-1.8521,-1.8521,-1.8511,-1.8514,-1.851,-1.8495,-1.8489,-1.8472,-1.8479,-1.8509,-1.8461,-1.846,-1.847,-1.8531,-1.8544,-1.855,-1.8497,-1.8497,-1.8498,-1.8533,0,-1.8602,-1.8608,-1.8588,-1.86,-1.8599,-1.8573,-1.8577,-1.8567,-1.8555,-1.8553,-1.854,-1.8537,-1.8517,-1.8513,-1.8519,-1.8504,-1.8521,-1.8501,-1.8499,-1.8499,-1.8502,-1.8555,-1.8568,-1.8601,-1.8537,-1.8537,-1.8538,0,-1.864,-1.8633,-1.8645,-1.8628,-1.8628,-1.8631,-1.8624,-1.8623,-1.8611,-1.8602,-1.8597,-1.8578,-1.8582,-1.8561,-1.8566,-1.8554,-1.8552,-1.8545,-1.8546,-1.8543,-1.852,-1.8554,-1.8611,-1.8616,-1.8544,-1.8544,-1.8543,0,-1.868,-1.8675,-1.8681,-1.8677,-1.8658,-1.8662,-1.8654,-1.8642,-1.8639,-1.8633,-1.8631,-1.8625,-1.8622,-1.8618,-1.8599,-1.8585,-1.8607,-1.8584,-1.8599,-1.86,-1.8603,-1.8603,-1.866,-1.8604,-1.8604,-1.8604,-1.8604,0,-1.8718,-1.8726,-1.87,-1.8703,-1.8712,-1.869,-1.87,-1.8689,-1.8679,-1.8681,-1.8658,-1.8661,-1.8636,-1.8635,-1.8621,-1.8628,-1.8626,-1.8619,-1.8615,-1.8621,-1.8622,-1.8618,-1.8615,-1.8605,-1.8605,-1.8605,-1.8605,0,-1.8764,-1.8746,-1.8752,-1.8734,-1.873,-1.8737,-1.8722,-1.8726,-1.8713,-1.8716,-1.8715,-1.8695,-1.8694,-1.8675,-1.867,-1.866,-1.8673,-1.8664,-1.8676,-1.8673,-1.869,-1.8689,-1.8746,-1.8753,-1.8693,-1.8694,-1.8694,0,-1.8788,-1.8794,-1.8777,-1.8777,-1.8771,-1.8771,-1.8769,-1.8748,-1.8747,-1.8736,-1.8741,-1.8738,-1.8735,-1.8734,-1.8719,-1.8715,-1.8706,-1.8727,-1.8706,-1.8712,-1.8706,-1.8706,-1.8707,-1.8731,-1.8732,-1.8733,-1.8733,0,-1.8833,-1.8825,-1.8823,-1.8818,-1.8817,-1.8812,-1.8806,-1.8807,-1.8785,-1.8785,-1.8784,-1.8781,-1.8777,-1.8774,-1.8768,-1.8761,-1.8743,-1.874,-1.8744,-1.8749,-1.8756,-1.8752,-1.8688,-1.8739,-1.8738,-1.8738,-1.8737,-1.8737,-1.8869,-1.8873,-1.8863,-1.8862,-1.8855,-1.8851,-1.8853,-1.8842,-1.8841,-1.8836,-1.8824,-1.8825,-1.8816,-1.8806,-1.88,-1.8801,-1.8791,-1.8795,-1.8797,-1.8798,-1.8801,-1.8757,-1.88,-1.88,-1.88,-1.88,-1.88,0,-1.8912,-1.8905,-1.8904,-1.8897,-1.8897,-1.8882,-1.8875,-1.8876,-1.8877,-1.887,-1.8868,-1.8868,-1.8866,-1.8852,-1.8849,-1.8853,-1.8845,-1.8853,-1.8851,-1.885,-1.8811,-1.8808,-1.8859,-1.8859,-1.8859,-1.8859,-1.8859,-1.8859,-1.8935,-1.8942,-1.8933,-1.8938,-1.893,-1.8931,-1.8929,-1.8925,-1.8919,-1.892,-1.8919,-1.8911,-1.8901,-1.8898,-1.8896,-1.8892,-1.8892,-1.8902,-1.8896,-1.8859,-1.8853,-1.8847,-1.8844,-1.8902,-1.8902,-1.8935,-1.8935,-1.8935]},{"header":{"parameterUnit":"m.s-1","parameterCategory":1,"la1":30.2991,"la2":30.254,"lo1":-89.0895,"lo2":-89.0444,"dy":0.0017,"dx":0.0017,"nx":28,"ny":28,"refTime":"2025-06-21T21:00:00:Z","depth":0,"parameterNumber":3,"parameterNumberName":"V-component_of_WINDS"},"data":[0,0,0,0,0,0,0,0,0,0,0,0,0,0,0,0,0,0,0,0,0,0,0,0,0,0,0,0,0,0,0,0,0,0,0,0,0,0,0,0,0,0,0,0,0,0,0,0,0,0,0,0,0,0,0,0,0,0,3.0685,3.0686,0,3.0706,3.0706,3.0707,3.0756,3.0757,3.0758,3.0759,3.0776,3.0775,3.0775,0,0,0,0,0,0,0,0,0,0,0,0,0,3.0685,3.0684,3.0685,3.0686,3.0686,3.0706,3.0706,3.0707,3.0756,3.0757,3.0758,3.0759,3.0776,3.0775,3.0775,0,0,0,0,0,0,0,0,0,0,0,0,0,3.0693,3.0684,3.0685,3.0713,3.0716,3.0706,3.0706,3.0707,3.0755,3.0757,3.0759,3.076,3.0776,3.0775,3.0775,3.0739,0,0,3.0772,3.0772,0,0,0,0,0,0,0,0,3.0692,3.0693,3.0709,3.0711,3.0714,3.073,3.0712,3.0717,3.0755,3.074,3.0759,3.0761,3.0759,3.076,3.076,3.0739,3.074,3.0772,3.0772,3.0771,3.0771,0,0,0,0,0,0,0,3.0692,3.0692,3.0693,3.0709,3.0712,3.0723,3.0726,3.0714,3.074,3.0742,3.0745,3.0747,3.0761,3.0761,3.0761,3.074,3.0772,3.0772,3.0771,3.0771,3.0692,3.069,0,0,0,0,0,0,3.0688,3.0691,3.0693,3.0694,3.0707,3.0722,3.0725,3.0723,3.0741,3.0745,3.0746,3.075,3.0761,3.0762,3.0762,3.0721,3.0771,3.0771,3.077,3.0694,3.0692,3.069,0,0,0,0,0,0,3.0688,3.0687,3.0692,3.0694,3.0695,3.072,3.0718,3.0723,3.0723,3.0744,3.0749,3.0741,3.0763,3.0763,3.0745,3.0722,3.077,3.077,3.0695,3.0693,3.0691,3.0639,0,0,0,0,0,0,3.0687,3.0687,3.0674,3.0693,3.0695,3.0675,3.0716,3.0722,3.0722,3.0727,3.0741,3.0745,3.0764,3.0745,3.0744,3.0722,3.0769,3.0698,3.0694,3.0691,3.0643,3.0635,3.0629,0,0,0,0,0,3.0687,3.0658,3.0673,3.0673,3.068,3.0674,3.0675,3.0699,3.072,3.0707,3.0721,3.0744,3.0725,3.0743,3.0742,3.0719,3.0699,3.0695,3.0692,3.0646,3.0637,3.0629,0,0,0,0,0,0,3.0634,3.0661,3.0678,3.0655,3.0662,3.0682,3.0667,3.0688,3.0688,3.0692,3.0721,3.0724,3.0701,3.0709,3.0728,3.0686,3.0716,3.0712,3.0682,3.0673,3.0666,3.0664,3.0768,0,0,0,0,0,3.062,3.0614,3.0637,3.0614,3.0617,3.0641,3.0639,3.0657,3.0665,3.0668,3.0681,3.0686,3.0682,3.0678,3.0675,3.0645,3.0648,3.0629,3.0622,3.0616,3.0611,3.0596,3.0588,3.0678,3.0678,3.0678,0,0,3.0589,3.0604,3.0598,3.0604,3.0611,3.0604,3.0643,3.0633,3.0627,3.0666,3.065,3.0659,3.0668,3.0644,3.0633,3.0649,3.0588,3.0611,3.0606,3.0605,3.0592,3.0583,3.0575,3.0675,3.0676,3.0676,0,0,3.0531,3.0541,3.0523,3.0531,3.0543,3.0559,3.0555,3.0572,3.0581,3.0565,3.0595,3.0588,3.0579,3.0584,3.0585,3.053,3.0551,3.0528,3.0491,3.0475,3.0468,3.0462,3.0442,3.0435,3.0524,3.0524,3.0524,0,3.0491,3.0482,3.0511,3.0499,3.0501,3.0538,3.0519,3.0525,3.0534,3.0534,3.0552,3.0543,3.0551,3.0528,3.0515,3.0515,3.051,3.0526,3.0467,3.0461,3.0456,3.0437,3.043,3.0521,3.0521,3.0522,3.0522,0,3.0433,3.0426,3.041,3.0421,3.0421,3.0405,3.0431,3.0427,3.0445,3.046,3.0444,3.0455,3.0455,3.0452,3.0468,3.0432,3.0441,3.0463,3.0493,3.0444,3.0427,3.042,3.0517,3.0518,3.0519,3.052,0,0,3.034,3.0368,3.0361,3.0367,3.0383,3.0378,3.0365,3.0367,3.0363,3.0368,3.0357,3.035,3.0371,3.0372,3.039,3.0377,3.0333,3.0401,3.0401,3.0387,3.0292,3.0276,3.0267,3.0347,3.0346,3.0345,3.0292,0,3.0285,3.0265,3.0291,3.0265,3.0259,3.0294,3.0283,3.0291,3.0304,3.03,3.0314,3.0309,3.0337,3.0338,3.0327,3.034,3.0314,3.0345,3.0336,3.0336,3.0333,3.0258,3.024,3.0189,3.0285,3.0284,3.0283,0,3.0218,3.0222,3.0196,3.0215,3.0213,3.0203,3.0207,3.0203,3.0213,3.0224,3.0226,3.0249,3.0236,3.0267,3.0249,3.027,3.0268,3.0274,3.0273,3.0272,3.0306,3.0255,3.0173,3.0165,3.0273,3.0274,3.0275,0,3.0152,3.0151,3.0136,3.0139,3.0161,3.0153,3.0161,3.0173,3.0173,3.0176,3.0176,3.0178,3.0178,3.0178,3.02,3.022,3.018,3.0212,3.0187,3.0187,3.0176,3.0177,3.0093,3.0176,3.0176,3.0176,3.0176,0,3.0087,3.007,3.0107,3.0097,3.0079,3.0108,3.0089,3.0101,3.0111,3.0104,3.0134,3.0126,3.0156,3.0151,3.0168,3.0151,3.0151,3.0158,3.0163,3.0155,3.0154,3.0154,3.0158,3.0174,3.0175,3.0175,3.0175,0,3.0011,3.0035,3.002,3.0043,3.0048,3.0034,3.0053,3.0044,3.006,3.005,3.005,3.0074,3.007,3.0092,3.0092,3.0103,3.0077,3.0088,3.0074,3.0078,3.0052,3.0054,2.9964,2.9954,3.0044,3.0043,3.0042,0,2.9968,2.9955,2.9977,2.9975,2.9983,2.9979,2.998,3.0008,3.0007,3.0019,3.0009,3.0008,3.0008,3.0,3.0017,3.0016,3.0027,2.9996,3.0027,3.002,3.0026,3.0027,3.0026,2.9989,2.9988,2.9987,2.9986,0,2.9889,2.9902,2.9902,2.9907,2.9907,2.9911,2.9918,2.9914,2.9945,2.9942,2.994,2.994,2.9941,2.9939,2.9943,2.995,2.9973,2.9976,2.9971,2.9962,2.9955,2.9959,3.0056,2.9978,2.9979,2.9979,2.998,2.998,2.9827,2.9818,2.9833,2.9832,2.9841,2.9846,2.984,2.9856,2.9854,2.9858,2.9875,2.9869,2.988,2.9887,2.9893,2.9888,2.9903,2.9894,2.9892,2.9889,2.9885,2.9956,2.9889,2.9889,2.9889,2.9889,2.9889,0,2.975,2.9761,2.9761,2.977,2.9769,2.9793,2.9802,2.9799,2.9794,2.9803,2.9804,2.98,2.9799,2.9817,2.9817,2.981,2.9821,2.9809,2.981,2.9811,2.9872,2.9876,2.9801,2.9801,2.9801,2.9801,2.9801,2.9801,2.9709,2.9696,2.971,2.9701,2.9712,2.9708,2.9711,2.9716,2.9724,2.9719,2.9719,2.9731,2.9743,2.9746,2.9745,2.975,2.9749,2.9734,2.9742,2.9798,2.9807,2.9815,2.982,2.9734,2.9734,2.9683,2.9682,2.9682]}]]